Regional Weather Roundup
Issued by NWS Charleston, WV

Home | Current Version | Previous Version | Text Only | Print | Product List | Glossary Off
Versions: 1 2 3 4 5 6 7 8 9 10 11 12 13 14 15 16 17 18 19 20 21 22 23 24 25 26 27 28

000
ASUS41 KRLX 221510
RWRRLX
West Virginia Regional Weather Roundup
National Weather Service Charleston WV
1100 AM EDT TUE APR 22 2014

Note: "fair" indicates few or no clouds below 12,000 feet with no
significant weather and/or obstructions to visibility.

WVZ003-221600-
Northern Panhandle of West Virginia

CITY           SKY/WX    TMP DP  RH WIND       PRES   REMARKS
WHEELING       LGT RAIN  57  55  93 W8        29.72R FOG
$$

WVZ009-221600-
Northwest West Virginia

CITY           SKY/WX    TMP DP  RH WIND       PRES   REMARKS
PARKERSBURG    CLOUDY    60  55  83 SW7       29.78S
$$

WVZ006-221600-
Western West Virginia

CITY           SKY/WX    TMP DP  RH WIND       PRES   REMARKS
HUNTINGTON     CLOUDY    62  56  80 VRB6      29.80S
$$

WVZ015-221600-
West Central West Virginia

CITY           SKY/WX    TMP DP  RH WIND       PRES   REMARKS
CHARLESTON     LGT RAIN  62  57  83 SW9       29.80S
$$

WVZ031-221600-
North Central West Virginia

CITY           SKY/WX    TMP DP  RH WIND       PRES   REMARKS
CLARKSBURG     LGT RAIN  58  53  84 SW12      29.76S
MORGANTOWN     RAIN      57  53  86 VRB6      29.75S FOG
$$

WVZ035-042-045-221600-
South Central West Virginia

CITY           SKY/WX    TMP DP  RH WIND       PRES   REMARKS
BECKLEY        CLOUDY    58  49  72 NW9       29.83S
BLUEFIELD      LGT RAIN  65  46  50 W13G25    29.85S
LEWISBURG      PTSUNNY   63  42  45 SW8       29.81S
$$

WVZ047-221600-
Northern Mountains of West Virginia

CITY           SKY/WX    TMP DP  RH WIND       PRES   REMARKS
ELKINS         LGT RAIN  57  51  80 SW7       29.79F
$$

WVZ052-221600-
Eastern Panhandle of West Virginia

CITY           SKY/WX    TMP DP  RH WIND       PRES   REMARKS
MARTINSBURG    LGT RAIN  67  47  48 SW8       29.69F
PETERSBURG     CLOUDY    73  55  53 SW10G16   29.72S
$$



USA.gov is the U.S. government's official web portal to all federal, state and local government web resources and services.